Location: Bishopstone
(51.0167°N, 1.9000°W)
Time: 07:52:13
(UTC+00:00)

USA 245 - Pass Details

Date: 16 September 2019
Orbit: 266 x 999 km, 97.9° (Epoch: 04 October)

Event Time Altitude Azimuth Distance (km) Brightness Sun altitude
Exits shadow 21:17:16 52° 180° (S) 1,208 4.7 -26.0°
Maximum altitude 21:18:55 80° 256° (WSW) 995 4.5 -26.2°
Drops below altitude 10° 21:24:54 10° 344° (NNW) 2,588 7.5 -26.9°
Sets 21:27:12 0° 346° (NNW) 3,452 8.3 -27.1°
